Regional Weather Roundup
Issued by NWS Northern Indiana

Home | Current Version | Previous Version | Text Only | Print | Product List | Glossary Off
Versions: 1 2 3 4 5 6 7 8 9 10 11 12 13 14 15 16 17 18 19 20 21 22 23 24 25 26 27 28 29 30 31 32 33 34 35 36 37 38 39 40 41 42 43 44 45 46 47 48 49 50

000
ASUS43 KIWX 260500
RWRIWX

KIWX WEATHER ROUNDUP
NATIONAL WEATHER SERVICE NORTHERN INDIANA
100 AM EDT MON JUN 26 2017

NOTE: "FAIR" INDICATES FEW OR NO CLOUDS BELOW 12,000 FEET WITH NO
SIGNIFICANT WEATHER AND/OR OBSTRUCTIONS TO VISIBILITY.

* THESE STATIONS ARE NOT UNDER NWS QUALITY CONTROL. THEY ALSO MAY NOT
  REPORT WEATHER SUCH AS PRECIPITATION OR FOG.

INZ001>027-260600-
NORTHERN INDIANA

CITY           SKY/WX    TMP DP  RH WIND       PRES   REMARKS
GARY*          CLEAR     61  47  61 W9        30.12S
KNOX*          PTCLDY    59  37  44 W8        30.10S
SOUTH BEND     MOCLDY    57  53  86 W7        30.10R
GOSHEN         CLOUDY    58  53  84 W5        30.08S
MONTICELLO*    CLEAR     58  49  71 W5        30.13R
FORT WAYNE     PTCLDY    61  48  62 W9        30.09S
PERU/GRISSOM   CLEAR     58  50  73 W6        30.11R

$$
INZ028>050-260600-
CENTRAL INDIANA

CITY           SKY/WX    TMP DP  RH WIND       PRES   REMARKS
LAFAYETTE      CLEAR     54  51  90 CALM      30.13S
KOKOMO*        CLEAR     60  50  69 W9        30.14R
MUNCIE*        CLEAR     60  49  66 W6        30.12S
INDIANAPOLIS   CLEAR     60  48  64 NW8       30.14S

$$
MIZ043>046-050>051-056>058-064>065-071>073-077>080-260600-
SOUTHWEST LOWER MICHIGAN

CITY           SKY/WX    TMP DP  RH WIND       PRES   REMARKS
BATTLE CREEK   CLEAR     56  49  77 W7        30.06S
BENTON HARBOR  PTCLDY    63  50  62 W17G26    30.08S
COLDWATER*     MOCLDY    57  48  73 SW5       30.07S
HILLSDALE*     CLEAR     52  45  76 CALM      30.06S
HOLLAND        CLEAR     60  52  74 NW9       30.06R
GRAND RAPIDS   CLEAR     57  53  86 W7        30.03S
KALAMAZOO      MOCLDY    60  48  64 W6        30.06F
STURGIS*       CLOUDY    60  50  70 W5        30.07S
THREE RIVERS*  FAIR      57  49  74 W3        30.07S

$$
OHZ001>008-015>018-024>025-260600-
NORTHWEST OHIO

CITY           SKY/WX    TMP DP  RH WIND       PRES   REMARKS
DEFIANCE       MOCLDY    59  50  72 SW3       30.07F
FINDLAY        CLOUDY    60  47  61 SW6       30.07S
TOLEDO EXPRESS MOCLDY    56  49  77 CALM      30.06S
TOLEDO METCALF CLEAR     60  49  66 CALM      30.06F
LIMA           CLEAR     59  47  64 SW6       30.09S

$$
AND FOR LAKE MICHIGAN COASTAL AND OPEN LAKE BUOY OBSERVATIONS

STATION/POSITION TEMP    WIND        PRES    VSBY  WAVE
                 AIR SEA DIR/SP/G                  HT/PER
                 (F)     (DEG/KT/KT) (MB)    (MI)  (FT/S)
CALUMET HARBOR    62     260/  4/  9 1018.9
MICHIGAN CITY     63     280/ 21/ 23   N/A
BURNS HARBOR      64     280/ 18/ 20 1019.3F
SOUTH LAKE BUOY   60 61  310/ 17/ 21 1017.7          3/ 4
4 MI NW BRIDGMAN  64 69  310/ 19/ 25 1018.6R         5/ 5
MICHIGAN CITY     64 66  300/ 17/ 23   N/A           5/ 4

$$
&&



USA.gov is the U.S. government's official web portal to all federal, state and local government web resources and services.